Regional Weather Roundup
Issued by NWS

Home | Current Version | Previous Version | Text Only | Print | Product List | Glossary Off
Versions: 1 2 3 4 5 6 7 8 9 10 11 12 13 14 15 16 17 18 19 20 21 22 23 24 25 26 27 28 29 30 31 32 33 34 35 36 37 38 39 40 41 42 43 44 45 46 47 48 49 50

000
ASUS45 KPSR 111400
RWRAZ

PRELIMINARY ARIZONA REGIONAL HOURLY WEATHER ROUNDUP
NATIONAL WEATHER SERVICE PHOENIX AZ
700 AM MST FRI JUL 11 2014

NOTE: FAIR INDICATES FEW OR NO CLOUDS BELOW 12,000 FEET WITH NO
SIGNIFICANT WEATHER AND/OR OBSTRUCTIONS TO VISIBILITY.

AZZ001>003-036-111500-
NORTHWEST ARIZONA

CITY           SKY/WX    TMP DP  RH WIND       PRES   REMARKS
KINGMAN        SUNNY     70  54  56 S6        30.06R
$$

AZZ004>008-015-016-018-111500-
NORTH CENTRAL ARIZONA

CITY           SKY/WX    TMP DP  RH WIND       PRES   REMARKS
GRAND CANYON   SUNNY     60  55  83 CALM      30.29R
WILLIAMS         N/A     57  52  82 S7        30.36R
PRESCOTT       MOSUNNY   65  59  81 NW3       30.18R
FLAGSTAFF      MOSUNNY   61  51  70 CALM      30.32R
PAYSON         SUNNY     72  55  56 CALM      30.20F
PAGE           MOSUNNY   74  54  49 S3        30.12R
$$

AZZ009>014-017-111500-
NORTHEAST ARIZONA

CITY           SKY/WX    TMP DP  RH WIND       PRES   REMARKS
WINSLOW        NOT AVBL
SAINT JOHNS    MOSUNNY   68  54  60 CALM      30.23R
WINDOW ROCK    PTSUNNY   62  52  69 CALM      30.31R
$$

AZZ023-111500-
GREATER PHOENIX AREA

CITY           SKY/WX    TMP DP  RH WIND       PRES   REMARKS
PHOENIX        MOSUNNY   89  62  40 E3        29.89R
GLENDALE       MOSUNNY   88  61  40 S8        29.91R
DEER VALLEY    SUNNY     86  60  41 SW5       29.91R
SCOTTSDALE     MOSUNNY   86  64  47 S5        29.93S
CHANDLER       MOSUNNY   88  64  45 CALM      29.90S
$$

AZZ027-028-111500-
SOUTHWEST MARICOPA COUNTY AND PINAL COUNTY

CITY           SKY/WX    TMP DP  RH WIND       PRES   REMARKS
CASA GRANDE    MOSUNNY   84  64  51 SW5       29.93R
$$

AZZ503-504-507>509-111500-
SOUTHEAST ARIZONA

CITY           SKY/WX    TMP DP  RH WIND       PRES   REMARKS
TUCSON         PTSUNNY   80  61  52 S8        30.02R
DAVIS-MONTHAN  MOSUNNY   79  61  53 S10       30.01R
RYAN FIELD       N/A     81  63  54 CALM      30.01R
NOGALES        PTSUNNY   71  63  75 NE5       30.10R
SIERRA VISTA   PTSUNNY   70  61  73 S6        30.15S
SAFFORD        MOSUNNY   77  58  51 SW3       30.02S
$$

AZZ020-021-025-026-031-111500-
SOUTHWEST ARIZONA

CITY           SKY/WX    TMP DP  RH WIND       PRES   REMARKS
YUMA           PTSUNNY   83  47  28 W3        29.85R
$$

CAZ031-033-041-043-047-048-061-111500-
SOUTHERN CALIFORNIA

CITY           SKY/WX    TMP DP  RH WIND       PRES   REMARKS
DOWNTOWN L.A.  CLOUDY    67  59  75 CALM      29.98R
L.A. AIRPORT   PTSUNNY   67  58  72 S6        29.98R
SAN DIEGO      CLOUDY    72  60  66 N5        29.99R
BURBANK        MOSUNNY   64  59  83 CALM      29.98R
ONTARIO        MOSUNNY   65  61  87 W5        29.99R FOG
RIVERSIDE      SUNNY     65  60  84 CALM      29.99R
PALM SPRINGS   SUNNY     82  52  35 CALM      29.87R
EL CENTRO NAS  MOSUNNY   85  44  23 NW8       29.83S
IMPERIAL       SUNNY     84  47  27 NW9       29.83R
BLYTHE         SUNNY     80  51  36 N7        29.85R
$$

NVZ020-UTZ003-111500-
SOUTHERN NEVADA-UTAH

CITY           SKY/WX    TMP DP  RH WIND       PRES   REMARKS
LAS VEGAS      NOT AVBL
SALT LAKE CITY CLOUDY    71  60  68 S10       30.07R
$$

NMZ009-TXZ055-111500-
NEW MEXICO-WEST TEXAS

CITY           SKY/WX    TMP DP  RH WIND       PRES   REMARKS
ALBUQUERQUE    MOSUNNY   71  56  58 SE5       30.20R
EL PASO        MOSUNNY   78  55  44 VRB3      30.08R
$$


........................KEY........................
SKY/WX - SKY CONDITION/WEATHER
TMP    - TEMPERATURE IN FAHRENHEIT
DP     - DEW POINT IN FAHRENHEIT
RH     - RELATIVE HUMIDITY IN PERCENT
WIND   - DIRECTION AND SPEED IN MILES PER HOUR (MPH)
VRB    - VARIABLE WIND DIRECTION
PRES   - MEAN SEA LEVEL PRESSURE IN INCHES OF MERCURY
         F - FALLING PRESSURE   R - RISING PRESSURE
         S - STEADY PRESSURE
VSB    - VISIBILITY IN MILES
HX     - HEAT INDEX IN FAHRENHEIT
WCI    - WIND CHILL INDEX IN FAHRENHEIT
TC     - TEMPERATURE IN CELSIUS WHICH IS ALSO KNOWN AS
         TEMPERATURE IN CENTIGRADE
AFB    - AIR FORCE BASE
         LUKE AFB IS LUKE AIR FORCE BASE
         DAVIS-MONTHAN IS DAVIS-MONTHAN AIR FORCE BASE
NAS    - NAVAL AIR STATION
         EL CENTRO NAS IS EL CENTRO NAVAL AIR STATION
N/A    - NOT AVAILABLE



USA.gov is the U.S. government's official web portal to all federal, state and local government web resources and services.